Location: Caltech
(34.1382°N, 118.1253°W)
Time: 17:17:08
(UTC-07:00)

Lacrosse 5 - Visible Passes

Search period start: 23 June 2017 00:00
Search period end: 03 July 2017 00:00
Orbit: 716 x 723 km, 57.0° (Epoch: 22 June)

Date Brightness Start Highest point End Pass type
(mag) Time Alt. Az. Time Alt. Az. Time Alt. Az.
23 Jun 4.4 21:23:29 10° NNE 21:24:50 11° NNE 21:26:11 10° NE visible
23 Jun 2.3 23:03:55 10° NNW 23:08:48 52° NE 23:08:48 52° NE visible
24 Jun 4.5 00:47:50 10° WNW 00:47:59 11° WNW 00:47:59 11° WNW visible
24 Jun 3.3 22:11:05 10° NNW 22:15:28 29° NE 22:17:19 23° ENE visible
24 Jun 3.4 23:53:46 10° NW 23:56:30 28° WNW 23:56:30 28° WNW visible
25 Jun 3.9 21:18:33 10° N 21:21:54 17° NE 21:25:13 10° ENE visible
25 Jun 1.9 23:00:20 10° NW 23:05:04 76° WNW 23:05:04 76° WNW visible
26 Jun 2.3 22:07:15 10° NNW 22:12:11 51° NE 22:13:41 38° E visible
26 Jun 4.0 23:51:08 10° WNW 23:52:53 16° W 23:52:53 16° W visible
27 Jun 3.2 21:14:25 10° NNW 21:18:47 28° NE 21:22:21 14° E visible
27 Jun 2.6 22:57:05 10° NW 23:01:33 40° WSW 23:01:33 40° WSW visible
28 Jun 1.8 22:03:40 10° NW 22:08:44 84° SW 22:10:17 46° SSE visible
29 Jun 2.3 21:10:35 10° NNW 21:15:30 50° NE 21:19:04 18° ESE visible
29 Jun 3.6 22:54:26 10° WNW 22:58:06 20° WSW 22:58:16 20° WSW visible
30 Jun 2.7 22:00:25 10° NW 22:05:09 41° WSW 22:07:07 29° S visible
01 Jul 1.9 21:06:59 10° NW 21:12:04 85° SW 21:16:02 17° SE visible
02 Jul 3.8 21:57:44 10° WNW 22:01:26 21° WSW 22:04:13 14° SSW visible
